Simultaneous Nadir Overpasses (SNOs) Predictions

Prediction of SNOs between FY3D and AQUA Satellite Orbit:

Table of predicted SNOs for the next 14.0 days since TLE Epoch: 12/17/2022
Index Date (FY3D) Time (FY3D) Lat,Lon (FY3D) SZA (FY3D ) Date (AQUA) Time (AQUA) Lat,Lon (AQUA) SZA (AQUA ) Distance(km) Time Diff (sec)
1 12/17/2022 12:47:36 77.92, -28.92 101.66 12/17/2022 12:48:35 77.92, -28.88 101.64 1.08 59
2 12/17/2022 13:38:04 -77.22, 141.76 79.20 12/17/2022 13:37:45 -77.23, 141.69 79.19 1.89 19
3 12/20/2022 03:24:06 77.80, 112.60 101.58 12/20/2022 03:25:05 77.80, 112.52 101.58 1.99 59
4 12/20/2022 04:14:40 -77.34, -77.89 78.98 12/20/2022 04:14:20 -77.33, -77.85 78.98 0.99 20
5 12/22/2022 18:00:39 77.80,-106.53 101.61 12/22/2022 18:01:37 77.81,-106.62 101.61 2.39 58
6 12/22/2022 18:51:13 -77.34, 63.00 78.96 12/22/2022 18:50:52 -77.34, 63.02 78.96 0.30 21
7 12/25/2022 08:37:13 77.89, 33.90 101.70 12/25/2022 08:38:09 77.89, 33.89 101.69 0.16 56
8 12/25/2022 09:27:47 -77.43,-156.51 78.88 12/25/2022 09:27:24 -77.42,-156.43 78.89 2.10 23
9 12/27/2022 23:13:44 77.83, 175.13 101.54 12/27/2022 23:14:38 77.83, 175.07 101.53 1.55 54
10 12/28/2022 00:04:18 -77.36, -15.28 79.05 12/28/2022 00:03:53 -77.36, -15.27 79.05 0.39 25
11 12/30/2022 13:50:18 77.89, -44.29 101.48 12/30/2022 13:51:09 77.89, -44.30 101.47 0.26 51



Historial Predications of SNOs between FY3D and AQUA
